Location: ???????
(55.4362°N, 38.1183°E)
Time: 20:26:04
(UTC+00:00)

USA 267 - Pass Details

Date: 25 October 2021
Orbit: 1101 x 1107 km, 123.0° (Epoch: 27 November)

Event Time Altitude Azimuth Distance (km) Brightness Sun altitude
Rises 15:25:00 0° 143° (SE) 3,909 5.8 -12.0°
Reaches altitude 10° 15:27:38 10° 150° (SSE) 2,954 5.3 -12.4°
Maximum altitude 15:33:46 42° 220° (SW) 1,522 4.4 -13.3°
Drops below altitude 10° 15:39:56 10° 290° (WNW) 2,965 6.7 -14.1°
Sets 15:42:35 0° 298° (WNW) 3,925 7.3 -14.5°
